This demonstration page uses our WeatherBlox Daily Observations layout. Learn more.

Left ArrowRight Arrow

39.92423, -83.80882

Hourly Observations for December 20, 2015

Temp ( °F °C ) Dew Point ( °F °C ) Humidity (%) Winds ( mph kmh ) Pressure ( in mb ) Visibility ( mi km ) Precip ( " mm )
12:56 am 00:56 Clear 24 -4.4 14 -10 65 65 S 5 7 30.51 1033 10 16.0934 0 0
1:56 am 01:56 Clear 24 -4.4 15 -9.4 68 68 S 3 6 30.49 1032 10 16.0934 0 0
2:56 am 02:56 Clear 24 -4.4 14 -10 65 65 S 5 7 30.49 1032 10 16.0934 0 0
3:56 am 03:56 Clear 19 -7.2 15 -9.4 84 84 SE 5 7 30.48 1032 10 16.0934 0 0
4:56 am 04:56 Clear 24 -4.4 16 -8.8 72 72 SSE 6 9 30.48 1032 10 16.0934 0 0
5:56 am 05:56 Clear 25 -3.8 17 -8.3 71 71 SSE 7 11 30.48 1032 10 16.0934 0 0
6:56 am 06:56 Clear 25 -3.8 17 -8.3 71 71 SSE 5 7 30.5 1033 10 16.0934 0 0
7:56 am 07:56 Sunny 27 -2.7 18 -7.7 69 69 SSE 9 15 30.49 1032 10 16.0934 0 0
8:56 am 08:56 Sunny 30 -1.1 20 -6.6 67 67 SSE 8 13 30.47 1032 10 16.0934 0 0
9:56 am 09:56 Sunny 36 2.2 22 -5.5 57 57 S 9 15 30.46 1032 10 16.0934 0 0
10:56 am 10:56 Sunny 38 3.3 22 -5.5 53 53 S 9 15 30.45 1031 10 16.0934 0 0
11:56 am 11:56 Sunny 41 5 22 -5.5 47 47 S 13 20 30.41 1030 10 16.0934 0 0
12:56 pm 12:56 Sunny 43 6.1 25 -3.8 49 49 S 9 15 30.35 1028 10 16.0934 0 0
1:56 pm 13:56 Sunny 45 7.2 25 -3.8 46 46 S 10 17 30.34 1027 10 16.0934 0 0
2:56 pm 14:56 Sunny 46 7.7 24 -4.4 42 42 S 10 17 30.31 1026 10 16.0934 0 0
3:56 pm 15:56 Sunny 44 6.6 25 -3.8 48 48 S 10 17 30.28 1025 10 16.0934 0 0
4:56 pm 16:56 Sunny 42 5.5 24 -4.4 49 49 SSE 9 15 30.28 1026 10 16.0934 0 0
5:56 pm 17:56 Clear 40 4.4 23 -5 51 51 SSE 8 13 30.27 1025 10 16.0934 0 0
6:56 pm 18:56 Clear 39 3.8 23 -5 53 53 SSE 9 15 30.26 1025 10 16.0934 0 0
7:56 pm 19:56 Clear 40 4.4 22 -5.5 49 49 SSE 9 15 30.23 1024 10 16.0934 0 0
8:56 pm 20:56 Clear 40 4.4 23 -5 51 51 SSE 7 11 30.22 1023 10 16.0934 0 0
9:56 pm 21:56 Clear 42 5.5 23 -5 47 47 S 9 15 30.21 1023 10 16.0934 0 0
10:56 pm 22:56 Clear 42 5.5 23 -5 47 47 S 12 19 30.17 1022 10 16.0934 0 0
11:56 pm 23:56 Clear 43 6.1 25 -3.8 49 49 S 10 17 30.16 1022 10 16.0934 0 0

Powered by AerisWeather